Weather in Tyup

Kyrgyzstan     42°43′32″N   78°21′49″E
temp.,
°C
wind,
m/s
gust,
m/s
humid.,
%
clouds,
%
prec.,
mm/h
press.,
hPa
HPBL,
m
17 october, sun
sun1700:00+2n324841 0.0 102326
03:00+1n32485 0.0 102427
06:00+1n32490 0.0 102528
09:00+5ne11440 0.0 1024106
12:00+9ssw21400 0.0 1022719
15:00+10ssw11380 0.0 1020912
18:00+5n11540 0.0 102124
21:00+3n32570 0.0 102326
18 october, mon
mon1800:00+3n22530 0.0 102322
03:00+2n22480 0.0 102222
06:00+2n22480 0.0 102223
09:00+6ene01400 0.0 1020105
12:00+10ssw21341 0.0 1018580
15:00+11ssw21374 0.0 1015641
18:00+6nw115666 0.0 101725
21:00+5n1155100 0.0 101917
19 october, tue
tue1900:00+5n1151100 0.0 101819
03:00+4n1151100 0.0 101819
06:00+4n1145100 0.0 101821
09:00+7nnw0139100 0.0 101993
12:00+11ssw2334100 0.0 1017524
15:00+11sw1236100 0.0 1016401
18:00+7n114823 0.0 101810
21:00+6n22445 0.0 101914
20 october, wed
wed2000:00+6n22444 0.0 101915
03:00+5n224615 0.0 101917
06:00+5n22505 0.0 102017
09:00+8ne114440 0.0 1019111
12:00+12ssw21365 0.0 1016584
15:00+12sw333899 0.1 1015783
18:00+8wsw1265100 0.3 101856
21:00+7nne2263100 0.0 101961
21 october, thu
thu2100:00+6n225441 0.1 101917
03:00+6n2252100 0.0 101817
06:00+6n1153100 0.0 101916
09:00+8se014736 0.0 1018117
12:00+11sw3342100 0.0 1017739
15:00+11ssw224355 0.0 1015627
18:00+7nne016128 0.0 101717
21:00+7n2253100 0.0 101618